Temp
73 73 72 71 71 72 74 74 74 75 75 75 75 75 74 75 75 75 74 73 72 70 70 70 70 70 74 70 72 74 75 75 75 75 75 75 75 74 74 74 74 73 73 73 73 73 73 73 73 73 73 73 73 69 68 69 71 72 71 71 71 71
73 73 72 72 72 72 72 73 71 72 73 74 74 75 73 72 74 71 73 71 70 71 69 69 69 74 70 71 72 74 75 75 75 75 74 74 74 74 74 74 73 73 73 72 73 68 69 72 73 73 73 73 69 67 68 69 71 72 72 71 70 72
74 74 73 73 72 71 71 70 71 71 72 73 74 73 71 73 69 70 70 70 70 69 69 69 69 72 71 72 72 74 74 74 74 75 75 74 74 74 73 73 73 73 72 72 69 66 65 65 66 73 73 70 66 66 69 69 70 71 71 71 70 73
75 75 73 72 72 71 71 71 70 70 70 71 71 72 70 70 69 69 70 69 69 70 70 68 75 75 74 71 71 74 74 74 74 74 75 73 74 73 74 74 73 73 72 70 66 66 67 69 68 67 67 66 65 68 70 70 70 71 70 73 72 74
76 75 74 72 72 71 71 71 70 70 70 69 70 70 69 68 68 67 68 68 69 70 68 67 68 70 68 69 68 68 70 70 69 69 73 68 68 71 70 68 68 69 66 66 67 67 68 68 69 69 67 66 67 69 70 70 71 72 70 70 70 73
76 76 73 72 72 72 73 70 70 70 69 70 70 68 67 67 67 67 67 68 70 68 68 67 67 68 68 68 69 68 69 68 69 69 69 68 67 68 67 68 68 67 66 67 67 68 68 68 67 67 66 65 67 69 70 70 72 71 70 69 71 73
76 75 74 74 73 72 71 71 70 70 69 69 69 68 67 67 67 66 67 68 67 67 67 66 67 67 68 68 67 67 66 66 66 67 68 67 67 68 67 65 66 67 67 68 69 70 69 69 67 69 67 68 69 70 71 71 70 70 69 69 71 74
76 75 74 75 73 72 71 71 71 72 70 71 70 69 68 67 67 66 67 67 68 67 67 66 67 67 68 67 66 66 66 66 66 66 66 67 66 66 66 66 65 65 67 69 70 72 71 72 69 68 69 68 69 71 70 70 70 70 69 68 70 72
76 75 74 74 73 72 71 70 70 69 69 72 68 69 70 68 67 67 68 68 69 66 66 67 67 67 67 66 65 65 65 65 65 66 66 66 65 65 65 66 66 66 67 68 68 70 71 71 69 67 68 69 69 70 70 71 70 71 70 68 69 71
76 76 74 74 72 71 70 69 69 69 69 70 67 68 69 67 67 67 67 67 68 67 66 65 66 67 66 66 66 65 65 65 65 65 66 65 65 65 65 65 66 67 69 69 69 70 68 71 71 69 69 69 69 70 68 71 71 71 70 69 68 69
77 76 75 74 72 72 71 70 69 68 68 67 67 68 67 67 67 67 67 67 68 69 68 67 67 67 66 66 65 65 64 64 65 65 66 66 66 66 66 66 67 67 68 67 67 67 68 68 70 71 71 72 72 70 70 71 72 71 71 69 68 68
76 75 74 74 73 72 71 71 69 67 66 67 68 66 66 67 69 67 67 67 67 67 68 66 66 67 66 65 64 64 64 64 64 64 65 66 66 67 67 68 69 69 67 66 66 66 67 66 67 71 72 71 71 72 70 70 72 72 72 70 69 69
75 73 74 74 73 71 71 71 68 67 67 68 66 66 65 65 66 67 67 67 66 66 65 65 65 65 66 64 64 64 64 63 65 65 66 66 67 67 67 68 68 67 65 64 65 65 68 66 66 68 69 73 73 72 71 72 72 72 71 71 69 69
74 74 72 72 71 72 72 70 68 67 68 66 65 65 65 64 66 66 66 66 66 66 66 66 67 66 65 64 64 64 64 64 64 64 65 66 66 66 66 66 66 66 67 64 63 64 64 66 67 68 69 71 71 70 72 73 71 71 71 71 70 69
71 70 71 70 72 72 71 71 70 68 66 65 65 64 65 65 66 66 66 66 66 66 66 65 66 65 65 64 64 64 65 65 66 65 65 65 66 66 66 66 65 65 63 62 63 65 66 64 65 67 67 66 68 71 71 72 72 72 71 70 70 69
70 70 69 70 68 69 70 69 70 70 66 66 66 65 64 65 65 65 66 65 66 66 66 65 66 66 64 64 65 65 65 65 65 64 64 64 64 65 66 66 65 65 63 63 65 64 65 66 65 65 64 64 66 68 68 69 70 70 73 71 71 69
69 69 68 69 69 68 69 68 67 68 69 67 66 66 65 65 66 66 65 65 66 66 64 66 66 65 64 63 63 63 65 65 66 65 64 63 63 64 64 66 64 64 63 62 63 64 64 64 65 64 63 63 64 65 65 67 68 69 72 70 71 72
69 69 68 67 67 67 68 68 68 69 70 70 69 67 67 68 66 66 66 65 65 65 65 65 65 64 64 64 64 64 64 65 65 64 63 63 63 63 63 63 63 63 64 63 62 61 61 62 64 64 63 63 63 63 63 65 66 67 68 70 69 70
69 68 66 67 68 67 66 65 65 67 67 68 68 68 68 67 67 67 66 66 66 66 66 65 66 65 63 64 64 64 64 64 64 63 63 61 61 62 63 63 62 61 62 63 62 61 62 60 62 62 63 64 63 64 63 64 65 64 66 68 69 71
67 67 67 66 67 65 65 65 64 65 66 66 67 67 66 66 66 66 67 66 67 67 68 65 66 65 64 64 64 63 64 64 63 63 62 61 61 62 62 61 61 61 60 61 62 63 62 61 61 61 62 63 64 65 66 65 64 64 65 67 68 68
66 67 67 66 65 64 65 64 63 65 65 64 66 65 65 65 65 64 66 68 67 66 67 67 67 66 65 67 64 64 64 63 63 62 61 61 61 62 63 62 62 60 60 59 60 62 62 62 60 60 61 62 63 66 65 65 65 65 66 66 68 67
65 66 66 66 66 65 64 65 64 63 63 63 65 64 62 64 66 66 66 65 64 65 66 66 66 65 65 66 64 64 63 62 62 62 62 62 62 64 64 63 63 61 62 60 59 61 62 61 58 58 58 58 60 62 63 63 62 64 64 66 67 67
66 66 65 65 64 65 64 63 64 63 65 62 64 65 65 65 65 66 64 65 65 64 64 65 66 65 66 66 65 64 64 63 63 63 63 61 61 63 63 62 63 62 60 61 60 62 61 60 58 59 58 57 56 56 59 60 62 62 63 62 65 67
67 65 64 66 67 65 65 65 66 66 65 67 65 65 64 64 65 66 65 65 64 63 64 64 65 66 65 64 64 65 64 63 64 64 63 61 61 62 61 62 63 63 62 60 60 59 62 61 60 58 55 55 56 56 53 56 58 61 64 64 65 65
66 65 64 66 66 66 66 65 65 64 65 63 63 62 62 61 63 64 64 63 63 64 65 65 64 65 65 64 63 63 63 64 63 63 64 62 62 62 61 61 61 62 62 60 59 60 61 61 60 61 58 56 54 53 54 55 58 59 62 64 64 65
64 64 65 65 66 65 65 64 62 62 60 58 58 59 58 59 60 60 61 61 64 65 65 63 63 64 65 64 63 63 63 64 63 63 63 62 63 63 62 61 61 60 60 60 60 59 59 61 62 62 61 59 58 54 55 57 57 53 60 62 63 64
65 65 65 65 65 65 63 62 62 62 61 61 60 59 59 60 61 61 63 63 63 63 64 64 63 63 63 63 63 64 63 63 63 64 65 64 62 61 64 65 63 61 61 61 60 58 58 59 61 61 61 61 61 61 60 57 54 56 55 59 61 60
65 65 65 65 65 65 63 61 62 62 62 60 61 61 62 61 63 63 62 62 62 61 63 63 63 62 63 65 64 63 63 63 64 65 65 63 62 62 63 63 62 61 61 61 60 59 58 59 57 58 60 60 60 61 62 60 59 56 53 53 54 58
66 65 65 65 65 64 64 63 63 63 60 62 63 62 62 63 62 62 61 61 62 62 62 62 63 62 62 63 64 62 62 62 61 63 64 63 62 62 61 61 60 60 59 59 59 59 59 58 59 58 59 58 59 59 59 59 59 57 54 52 53 56
66 65 66 65 65 64 64 64 63 61 62 62 63 61 61 61 60 61 61 60 60 61 60 60 61 62 62 62 61 62 62 61 60 61 62 61 61 61 60 60 59 59 59 59 59 58 58 58 58 59 60 60 58 57 58 57 57 56 57 57 54 55
67 67 66 66 65 65 64 64 63 63 63 62 62 61 61 60 59 60 61 60 60 60 60 60 60 61 61 61 60 61 60 60 61 61 61 61 59 60 59 59 60 59 59 58 58 57 58 57 58 58 59 57 58 58 57 55 55 57 56 55 54 54
65 67 66 66 64 65 64 63 63 64 64 63 62 62 61 60 60 60 60 59 59 60 59 60 59 59 59 59 59 59 60 60 60 60 60 59 60 61 61 61 59 59 59 58 58 58 57 56 56 56 57 57 56 58 57 57 57 56 56 56 55 54
66 67 67 66 64 65 64 64 63 64 64 63 63 62 62 60 60 60 60 59 59 59 58 59 58 60 58 58 58 59 60 59 59 59 58 60 59 60 60 59 60 58 58 57 56 57 55 55 56 55 55 56 57 58 57 57 58 57 56 56 55 52
64 67 67 66 65 64 64 63 62 64 64 64 63 63 62 61 61 61 61 60 60 59 59 58 58 58 59 59 58 59 59 58 58 58 59 59 58 59 59 59 58 57 57 56 56 55 55 55 55 55 56 56 56 57 55 57 57 56 55 55 53 52
61 63 65 65 63 63 64 62 61 64 64 64 63 63 62 62 62 62 61 61 60 60 60 59 59 60 59 59 59 60 59 58 58 58 57 58 61 59 59 60 58 57 57 58 58 57 55 56 57 56 55 55 57 55 55 56 55 57 56 55 55 54
60 60 63 64 62 62 62 62 62 62 63 63 64 63 62 62 62 62 62 62 61 60 61 60 60 60 59 59 59 59 59 58 58 58 58 58 58 58 58 58 57 56 57 60 57 56 55 55 54 54 54 54 56 55 56 56 57 55 55 55 55 54
60 61 62 61 61 62 62 63 62 61 62 62 63 63 62 62 61 62 62 62 61 61 61 61 61 61 59 58 59 59 58 58 58 57 58 57 58 58 57 58 56 55 55 56 56 55 54 55 54 54 54 54 54 55 55 54 55 56 56 54 55 54
MSLP
1013.58 1013.70 1013.94 1014.18 1014.34 1014.42 1014.50 1014.62 1014.82 1015.02 1015.18 1015.42 1015.54 1015.66 1015.74 1015.82 1015.94 1016.10 1016.18 1016.30 1016.42 1016.66 1016.82 1016.94 1017.02 1017.14 1017.18 1017.30 1017.38 1017.42 1017.46 1017.54 1017.62 1017.70 1017.82 1017.94 1018.02 1018.14 1018.22 1018.34 1018.46 1018.62 1018.70 1018.78 1018.86 1018.90 1018.90 1018.94 1018.82 1018.70 1018.58 1018.62 1018.70 1018.78 1018.78 1019.22 1019.14 1019.14 1019.14 1019.06 1019.10 1019.26
1013.54 1013.66 1013.90 1014.14 1014.34 1014.46 1014.58 1014.74 1014.94 1015.10 1015.26 1015.46 1015.62 1015.70 1015.82 1015.90 1015.98 1016.14 1016.26 1016.34 1016.54 1016.74 1016.90 1017.06 1017.14 1017.18 1017.30 1017.34 1017.42 1017.42 1017.46 1017.54 1017.62 1017.66 1017.78 1017.86 1017.94 1018.06 1018.18 1018.26 1018.38 1018.58 1018.70 1018.78 1018.86 1018.94 1018.98 1018.94 1018.90 1018.82 1018.66 1018.54 1018.66 1018.70 1018.70 1019.10 1019.18 1019.30 1019.26 1019.22 1019.22 1019.22
1013.42 1013.58 1013.78 1014.02 1014.26 1014.46 1014.62 1014.82 1014.98 1015.18 1015.34 1015.50 1015.62 1015.78 1015.86 1015.90 1016.02 1016.14 1016.30 1016.42 1016.62 1016.82 1016.98 1017.10 1017.22 1017.26 1017.38 1017.38 1017.42 1017.46 1017.50 1017.54 1017.58 1017.62 1017.70 1017.82 1017.94 1018.10 1018.22 1018.34 1018.42 1018.58 1018.74 1018.82 1018.90 1019.02 1019.06 1019.06 1019.02 1018.94 1018.86 1018.70 1018.74 1018.70 1018.70 1019.14 1019.18 1019.34 1019.34 1019.26 1019.26 1019.22
1013.38 1013.54 1013.70 1013.94 1014.18 1014.42 1014.62 1014.82 1014.98 1015.18 1015.38 1015.54 1015.66 1015.78 1015.86 1015.94 1016.06 1016.18 1016.30 1016.46 1016.70 1016.86 1017.02 1017.18 1017.22 1017.30 1017.46 1017.42 1017.46 1017.46 1017.46 1017.50 1017.54 1017.62 1017.70 1017.86 1018.02 1018.14 1018.26 1018.38 1018.50 1018.62 1018.74 1018.86 1018.94 1019.02 1019.06 1019.06 1019.06 1019.02 1019.06 1018.98 1018.86 1018.74 1018.74 1019.14 1019.18 1019.34 1019.38 1019.38 1019.30 1019.26
1013.30 1013.50 1013.70 1013.90 1014.18 1014.46 1014.58 1014.78 1014.94 1015.14 1015.34 1015.54 1015.70 1015.78 1015.86 1015.98 1016.18 1016.30 1016.34 1016.50 1016.74 1016.94 1017.18 1017.34 1017.42 1017.50 1017.58 1017.50 1017.54 1017.54 1017.50 1017.66 1017.78 1017.86 1017.82 1018.10 1018.18 1018.26 1018.34 1018.54 1018.66 1018.74 1018.82 1018.94 1019.02 1019.02 1019.02 1019.10 1019.02 1019.02 1019.14 1019.10 1019.06 1018.90 1018.78 1019.06 1019.14 1019.30 1019.46 1019.50 1019.42 1019.34
1013.22 1013.42 1013.66 1013.82 1014.02 1014.26 1014.46 1014.86 1015.10 1015.26 1015.46 1015.58 1015.70 1015.82 1015.86 1016.06 1016.30 1016.42 1016.46 1016.58 1016.82 1017.10 1017.30 1017.46 1017.58 1017.62 1017.62 1017.54 1017.54 1017.50 1017.70 1017.86 1017.90 1017.94 1017.98 1018.26 1018.30 1018.38 1018.58 1018.66 1018.74 1018.86 1018.90 1018.90 1018.94 1018.94 1018.94 1019.02 1019.02 1018.94 1019.06 1019.14 1019.18 1019.06 1018.86 1019.14 1019.14 1019.26 1019.42 1019.58 1019.58 1019.50
1013.30 1013.54 1013.74 1013.78 1013.98 1014.22 1014.58 1014.74 1014.98 1015.26 1015.54 1015.74 1015.78 1015.98 1015.94 1016.02 1016.34 1016.42 1016.50 1016.54 1016.90 1017.18 1017.34 1017.58 1017.66 1017.70 1017.78 1017.62 1017.58 1017.74 1018.06 1018.02 1018.06 1018.18 1018.18 1018.30 1018.46 1018.46 1018.58 1018.66 1018.74 1018.82 1018.82 1018.86 1018.86 1018.82 1018.82 1018.86 1018.78 1018.86 1018.94 1018.98 1019.06 1019.02 1018.86 1019.14 1019.14 1019.34 1019.46 1019.62 1019.66 1019.62
1013.38 1013.62 1013.82 1013.86 1014.14 1014.42 1014.62 1014.82 1015.06 1015.26 1015.54 1015.66 1015.82 1016.02 1015.94 1015.90 1016.26 1016.54 1016.66 1016.74 1016.90 1017.10 1017.38 1017.66 1017.78 1017.82 1017.82 1017.74 1017.82 1017.94 1018.14 1018.14 1018.14 1018.30 1018.26 1018.22 1018.46 1018.50 1018.58 1018.70 1018.70 1018.74 1018.78 1018.82 1018.86 1018.74 1018.70 1018.58 1018.58 1018.66 1018.86 1018.94 1018.90 1018.78 1018.82 1019.14 1019.34 1019.42 1019.54 1019.62 1019.70 1019.70
1013.46 1013.74 1013.86 1013.98 1014.34 1014.50 1014.66 1014.86 1015.10 1015.34 1015.58 1015.66 1015.82 1015.94 1015.98 1015.90 1016.02 1016.50 1016.78 1016.94 1017.06 1017.26 1017.42 1017.58 1017.78 1017.78 1017.78 1017.98 1017.98 1018.14 1018.26 1018.22 1018.22 1018.38 1018.30 1018.30 1018.38 1018.54 1018.66 1018.66 1018.74 1018.74 1018.70 1018.74 1018.82 1018.82 1018.62 1018.54 1018.54 1018.58 1018.62 1018.74 1018.70 1018.70 1018.86 1019.06 1019.42 1019.62 1019.62 1019.62 1019.70 1019.70
1013.46 1013.78 1014.02 1014.22 1014.42 1014.58 1014.74 1014.98 1015.14 1015.34 1015.46 1015.62 1015.86 1015.94 1016.02 1016.14 1016.18 1016.34 1016.66 1016.78 1016.86 1017.10 1017.30 1017.46 1017.54 1017.62 1017.90 1017.98 1018.06 1018.22 1018.46 1018.38 1018.42 1018.42 1018.30 1018.34 1018.30 1018.46 1018.62 1018.66 1018.70 1018.70 1018.70 1018.78 1018.82 1018.82 1018.66 1018.54 1018.50 1018.42 1018.46 1018.58 1018.62 1018.70 1018.74 1019.02 1019.34 1019.58 1019.70 1019.70 1019.70 1019.74
1013.42 1013.70 1013.98 1014.30 1014.42 1014.58 1014.70 1014.94 1015.18 1015.34 1015.50 1015.74 1015.86 1015.98 1016.06 1016.14 1016.34 1016.50 1016.70 1016.82 1016.86 1016.90 1017.10 1017.30 1017.42 1017.74 1018.06 1018.06 1018.06 1018.34 1018.58 1018.50 1018.38 1018.34 1018.30 1018.30 1018.26 1018.38 1018.54 1018.66 1018.70 1018.74 1018.78 1018.70 1018.74 1018.74 1018.66 1018.66 1018.46 1018.42 1018.34 1018.42 1018.46 1018.42 1018.58 1018.82 1018.98 1019.30 1019.62 1019.74 1019.70 1019.74
1013.46 1013.78 1013.98 1014.26 1014.34 1014.62 1014.86 1014.98 1015.22 1015.42 1015.62 1015.70 1015.82 1016.02 1016.14 1016.22 1016.38 1016.58 1016.70 1016.90 1017.06 1017.14 1017.22 1017.46 1017.54 1017.78 1018.02 1017.98 1018.02 1018.26 1018.34 1018.42 1018.38 1018.22 1018.14 1018.18 1018.26 1018.30 1018.38 1018.42 1018.46 1018.50 1018.50 1018.46 1018.58 1018.58 1018.50 1018.66 1018.66 1018.54 1018.50 1018.54 1018.42 1018.42 1018.50 1018.62 1018.86 1019.06 1019.30 1019.42 1019.62 1019.70
1013.46 1013.78 1014.02 1014.22 1014.30 1014.58 1014.78 1015.02 1015.30 1015.42 1015.54 1015.58 1015.74 1015.98 1016.26 1016.38 1016.38 1016.54 1016.70 1016.78 1017.10 1017.30 1017.46 1017.74 1018.02 1018.10 1017.90 1017.82 1018.02 1018.14 1018.18 1018.18 1018.26 1018.22 1018.14 1018.18 1018.26 1018.26 1018.34 1018.38 1018.38 1018.30 1018.34 1018.38 1018.34 1018.42 1018.46 1018.62 1018.74 1018.66 1018.54 1018.54 1018.46 1018.62 1018.50 1018.46 1018.54 1018.82 1019.02 1019.18 1019.42 1019.50
1013.62 1013.90 1014.06 1014.14 1014.18 1014.42 1014.66 1014.98 1015.10 1015.26 1015.38 1015.50 1015.66 1015.86 1016.06 1016.26 1016.34 1016.50 1016.74 1017.02 1017.18 1017.30 1017.50 1017.54 1017.82 1018.10 1018.10 1017.94 1018.02 1018.18 1018.18 1018.06 1018.06 1018.14 1018.10 1018.10 1018.22 1018.22 1018.30 1018.34 1018.38 1018.26 1018.34 1018.38 1018.46 1018.54 1018.66 1018.70 1018.54 1018.50 1018.58 1018.62 1018.66 1018.66 1018.50 1018.50 1018.62 1018.74 1018.70 1018.94 1019.10 1019.26
1013.86 1014.06 1014.10 1014.30 1014.34 1014.50 1014.70 1014.90 1015.02 1015.10 1015.26 1015.54 1015.78 1015.78 1015.94 1016.18 1016.38 1016.50 1016.58 1016.94 1017.30 1017.38 1017.50 1017.62 1017.78 1018.02 1018.10 1018.02 1017.90 1017.94 1018.02 1017.98 1017.94 1017.98 1017.98 1017.98 1018.06 1018.10 1018.10 1018.22 1018.22 1018.46 1018.50 1018.50 1018.54 1018.66 1018.70 1018.82 1018.90 1018.90 1018.94 1018.90 1018.78 1018.70 1018.66 1018.78 1018.62 1018.66 1019.06 1019.02 1018.94 1019.10
1014.06 1014.22 1014.34 1014.42 1014.54 1014.58 1014.78 1014.94 1015.02 1015.02 1015.10 1015.14 1015.54 1016.14 1016.06 1016.10 1016.34 1016.54 1016.62 1016.78 1017.02 1017.34 1017.42 1017.50 1017.58 1017.54 1017.82 1017.98 1017.98 1017.94 1017.90 1017.98 1017.94 1017.94 1017.98 1018.02 1018.02 1018.10 1018.06 1018.10 1018.14 1018.30 1018.62 1018.82 1018.82 1018.66 1018.50 1018.62 1018.74 1018.98 1018.94 1018.90 1018.86 1018.74 1018.86 1018.86 1018.82 1018.82 1018.86 1019.14 1019.34 1019.34
1014.30 1014.34 1014.42 1014.46 1014.54 1014.62 1014.70 1014.90 1014.94 1015.06 1015.18 1015.18 1015.54 1015.82 1016.10 1016.38 1016.46 1016.70 1016.90 1016.98 1017.02 1017.14 1017.14 1017.02 1016.90 1017.02 1017.54 1017.90 1017.94 1017.82 1017.74 1017.90 1018.02 1018.06 1018.06 1018.06 1018.14 1018.10 1018.18 1018.26 1018.30 1018.34 1018.54 1018.90 1018.90 1018.94 1018.74 1018.66 1018.74 1018.78 1018.74 1018.98 1019.06 1019.02 1019.06 1018.98 1018.90 1018.90 1018.82 1019.02 1019.18 1019.14
1014.34 1014.30 1014.34 1014.50 1014.58 1014.66 1014.78 1014.78 1014.82 1014.98 1015.14 1015.38 1015.58 1015.66 1015.86 1016.10 1016.50 1016.74 1016.86 1017.02 1017.10 1017.38 1017.54 1017.42 1017.38 1017.46 1017.66 1017.90 1017.98 1017.90 1017.90 1017.98 1017.86 1017.86 1018.02 1018.14 1018.22 1018.18 1018.26 1018.34 1018.66 1018.70 1018.62 1018.74 1019.06 1019.02 1019.02 1019.06 1018.94 1018.98 1018.94 1018.94 1018.82 1018.90 1019.06 1019.06 1019.02 1018.98 1019.02 1019.14 1019.10 1019.22
1014.30 1014.30 1014.38 1014.50 1014.58 1014.74 1014.86 1014.90 1014.94 1015.10 1015.26 1015.42 1015.62 1015.78 1015.86 1016.06 1016.14 1016.30 1016.42 1016.58 1016.90 1017.18 1017.42 1017.62 1017.46 1017.46 1017.66 1017.70 1017.70 1017.70 1017.86 1017.82 1017.78 1017.78 1018.02 1018.34 1018.42 1018.42 1018.46 1018.54 1018.78 1019.02 1018.94 1018.94 1018.98 1018.98 1019.02 1019.06 1019.02 1019.02 1019.06 1019.02 1018.94 1018.94 1018.86 1018.90 1018.98 1019.14 1019.22 1019.22 1019.22 1019.14
1014.26 1014.18 1014.26 1014.46 1014.62 1014.94 1015.10 1015.30 1015.54 1015.50 1015.54 1015.66 1015.78 1015.94 1016.06 1016.26 1016.30 1016.38 1016.42 1016.46 1016.58 1016.86 1017.02 1017.06 1017.26 1017.38 1017.50 1017.42 1017.38 1017.22 1017.30 1017.50 1017.50 1017.62 1017.94 1018.30 1018.50 1018.62 1018.66 1018.70 1018.86 1018.98 1019.14 1019.10 1019.02 1019.14 1019.18 1019.14 1019.10 1019.02 1019.14 1019.18 1019.02 1018.94 1018.78 1018.78 1018.90 1019.10 1019.18 1019.22 1019.18 1019.02
1014.30 1014.14 1014.26 1014.62 1014.90 1015.10 1015.38 1015.58 1015.66 1015.74 1015.94 1015.94 1016.06 1016.10 1016.22 1016.26 1016.34 1016.46 1016.50 1016.58 1016.66 1016.74 1016.86 1016.90 1016.98 1017.14 1017.30 1017.26 1017.30 1017.34 1017.50 1017.58 1017.62 1017.82 1018.06 1018.22 1018.30 1018.54 1018.58 1018.66 1018.86 1018.98 1019.18 1019.22 1019.22 1019.14 1019.14 1019.06 1019.34 1019.46 1019.38 1019.30 1019.06 1018.90 1018.94 1018.94 1018.98 1019.02 1019.14 1019.18 1019.10 1019.02
1014.30 1014.26 1014.30 1014.50 1014.74 1014.94 1014.98 1015.14 1015.30 1015.70 1015.90 1016.06 1016.18 1016.38 1016.58 1016.50 1016.46 1016.50 1016.58 1016.66 1016.74 1016.82 1016.90 1017.02 1017.14 1017.22 1017.26 1017.38 1017.58 1017.66 1017.82 1017.94 1017.94 1018.02 1018.14 1018.26 1018.38 1018.50 1018.62 1018.86 1019.02 1019.14 1019.14 1019.38 1019.42 1019.26 1019.26 1019.26 1019.66 1019.66 1019.82 1019.82 1019.46 1019.26 1019.18 1019.14 1019.02 1018.90 1019.14 1019.22 1019.14 1019.06
1014.34 1014.30 1014.38 1014.54 1014.70 1014.90 1014.90 1014.94 1015.22 1015.62 1015.70 1016.14 1016.06 1016.14 1016.34 1016.54 1016.58 1016.74 1016.86 1016.98 1017.02 1017.06 1017.06 1017.06 1017.02 1017.14 1017.38 1017.58 1017.66 1017.78 1017.98 1018.22 1018.26 1018.14 1018.26 1018.46 1018.50 1018.62 1018.70 1018.94 1019.02 1019.18 1019.66 1019.54 1019.38 1019.34 1019.38 1019.30 1019.70 1019.58 1019.46 1019.66 1020.10 1020.18 1019.62 1019.38 1019.22 1019.18 1019.18 1019.26 1019.18 1019.14
1014.38 1014.34 1014.46 1014.58 1014.66 1014.82 1014.90 1015.02 1015.18 1015.42 1015.62 1015.74 1016.30 1016.42 1016.54 1016.74 1016.90 1016.98 1017.18 1017.10 1017.18 1017.26 1017.34 1017.38 1017.30 1017.34 1017.30 1017.42 1017.62 1017.82 1017.94 1018.06 1018.18 1018.18 1018.26 1018.46 1018.50 1018.62 1018.78 1019.02 1018.90 1018.90 1019.06 1019.50 1019.50 1019.58 1019.34 1019.34 1019.30 1019.50 1020.18 1020.18 1020.30 1020.22 1020.66 1020.34 1019.94 1019.54 1019.26 1019.26 1019.26 1019.22
1014.26 1014.34 1014.50 1014.54 1014.70 1014.82 1015.02 1015.34 1015.54 1015.74 1015.78 1016.14 1016.34 1016.54 1016.78 1017.10 1017.18 1017.26 1017.38 1017.46 1017.50 1017.42 1017.46 1017.46 1017.50 1017.58 1017.66 1017.78 1017.74 1017.78 1017.90 1017.94 1018.02 1018.14 1018.18 1018.34 1018.54 1018.66 1018.70 1018.70 1018.74 1018.86 1019.02 1019.18 1019.50 1019.50 1019.50 1019.34 1019.38 1019.42 1019.82 1020.30 1020.66 1020.86 1020.66 1020.38 1020.18 1020.02 1019.50 1019.54 1019.38 1019.30
1014.18 1014.30 1014.46 1014.54 1014.62 1014.78 1015.06 1015.38 1015.74 1016.06 1016.46 1016.62 1016.90 1016.94 1017.22 1017.38 1017.42 1017.54 1017.62 1017.46 1017.42 1017.42 1017.50 1017.54 1017.58 1017.62 1017.70 1017.82 1017.90 1017.82 1017.78 1017.86 1017.86 1018.02 1018.18 1018.30 1018.38 1018.50 1018.66 1018.74 1018.74 1018.78 1018.98 1019.02 1019.18 1019.46 1019.70 1019.46 1019.46 1019.58 1019.62 1019.70 1019.90 1020.38 1020.50 1020.30 1020.38 1020.82 1019.82 1019.66 1019.62 1019.50
1014.06 1014.30 1014.38 1014.42 1014.46 1014.70 1015.10 1015.30 1015.50 1015.74 1015.98 1016.30 1016.58 1016.78 1016.78 1016.94 1017.14 1017.30 1017.30 1017.46 1017.58 1017.54 1017.58 1017.66 1017.70 1017.74 1017.86 1017.90 1017.98 1017.98 1017.98 1017.98 1018.14 1018.14 1018.06 1018.22 1018.42 1018.46 1018.42 1018.54 1018.62 1018.74 1018.82 1018.90 1019.02 1019.42 1019.58 1019.70 1019.62 1019.66 1019.66 1019.50 1019.58 1019.82 1019.86 1020.10 1020.58 1020.42 1020.70 1020.14 1019.78 1019.70
1014.06 1014.30 1014.38 1014.38 1014.46 1014.54 1014.94 1015.22 1015.46 1015.70 1015.98 1016.22 1016.26 1016.54 1016.66 1016.86 1016.90 1017.06 1017.30 1017.50 1017.66 1017.74 1017.70 1017.74 1017.82 1017.86 1017.90 1017.94 1018.02 1018.10 1018.02 1018.10 1018.26 1018.26 1018.22 1018.38 1018.46 1018.42 1018.42 1018.54 1018.54 1018.62 1018.78 1018.78 1018.74 1018.98 1019.38 1019.46 1019.54 1019.86 1019.66 1019.74 1019.70 1019.78 1019.78 1019.74 1019.82 1020.14 1020.38 1020.54 1020.22 1019.70
1014.14 1014.46 1014.58 1014.50 1014.58 1014.66 1014.74 1014.98 1015.18 1015.58 1015.98 1016.06 1016.06 1016.30 1016.42 1016.58 1016.82 1017.06 1017.42 1017.58 1017.58 1017.70 1017.78 1017.82 1017.86 1017.98 1017.98 1018.06 1018.10 1018.22 1018.22 1018.30 1018.38 1018.42 1018.42 1018.50 1018.54 1018.54 1018.62 1018.66 1018.74 1018.82 1018.86 1018.82 1018.78 1018.90 1019.10 1019.26 1019.26 1019.46 1019.66 1019.78 1019.94 1020.14 1019.98 1019.98 1020.02 1020.02 1020.34 1020.62 1020.46 1020.26
1014.22 1014.62 1014.70 1014.70 1014.66 1014.78 1014.74 1014.86 1015.14 1015.58 1015.78 1015.98 1015.98 1016.22 1016.34 1016.62 1016.82 1017.06 1017.38 1017.54 1017.66 1017.82 1017.86 1017.94 1017.98 1017.98 1018.06 1018.10 1018.14 1018.18 1018.26 1018.34 1018.46 1018.50 1018.58 1018.66 1018.70 1018.74 1018.78 1018.82 1018.82 1018.82 1018.82 1018.94 1019.06 1019.06 1019.14 1019.18 1019.18 1019.22 1019.30 1019.38 1019.78 1020.10 1020.18 1020.22 1020.22 1020.18 1020.26 1020.30 1020.58 1020.42
1014.14 1014.58 1014.74 1014.78 1014.78 1014.82 1014.78 1014.78 1015.06 1015.38 1015.54 1015.70 1015.86 1016.10 1016.42 1016.70 1016.82 1016.98 1017.26 1017.50 1017.66 1017.82 1017.82 1018.02 1018.02 1018.14 1018.18 1018.22 1018.26 1018.30 1018.38 1018.46 1018.50 1018.62 1018.70 1018.74 1018.82 1018.94 1018.98 1018.98 1019.02 1019.02 1019.10 1019.18 1019.26 1019.30 1019.30 1019.42 1019.38 1019.34 1019.38 1019.46 1019.66 1019.82 1020.06 1020.34 1020.34 1020.22 1020.26 1020.42 1020.42 1020.34
1014.34 1014.62 1014.78 1014.78 1014.86 1014.78 1014.78 1014.78 1014.98 1015.18 1015.38 1015.50 1015.66 1015.98 1016.22 1016.50 1016.70 1016.82 1017.06 1017.46 1017.70 1017.86 1018.06 1018.10 1018.22 1018.34 1018.38 1018.34 1018.42 1018.50 1018.54 1018.62 1018.70 1018.74 1018.86 1018.90 1018.98 1019.02 1019.10 1019.18 1019.26 1019.34 1019.38 1019.38 1019.42 1019.46 1019.54 1019.58 1019.62 1019.66 1019.70 1019.78 1019.86 1019.94 1019.98 1020.06 1020.10 1020.14 1020.18 1020.30 1020.34 1020.46
1014.14 1014.58 1014.78 1014.78 1014.90 1014.86 1014.82 1014.82 1014.98 1015.10 1015.26 1015.42 1015.58 1015.74 1016.02 1016.34 1016.50 1016.66 1016.94 1017.34 1017.62 1017.90 1018.10 1018.26 1018.34 1018.42 1018.50 1018.50 1018.54 1018.70 1018.78 1018.82 1018.90 1018.94 1018.94 1018.98 1019.02 1019.06 1019.18 1019.30 1019.42 1019.50 1019.58 1019.62 1019.66 1019.66 1019.74 1019.86 1019.82 1019.90 1020.06 1020.02 1019.94 1019.98 1020.10 1020.02 1020.06 1020.14 1020.26 1020.26 1020.38 1020.34
1014.50 1014.58 1014.74 1014.86 1014.98 1015.02 1014.98 1014.94 1015.02 1015.02 1015.14 1015.30 1015.54 1015.62 1015.90 1016.18 1016.34 1016.42 1016.70 1017.06 1017.42 1017.70 1017.94 1018.14 1018.30 1018.38 1018.46 1018.46 1018.62 1018.78 1018.86 1018.94 1018.98 1019.02 1019.06 1019.10 1019.18 1019.26 1019.34 1019.50 1019.58 1019.66 1019.78 1019.82 1019.82 1019.86 1019.86 1019.86 1019.86 1019.90 1019.90 1019.98 1020.06 1020.10 1020.18 1020.18 1020.26 1020.26 1020.34 1020.34 1020.54 1020.70
1014.94 1015.26 1015.14 1015.02 1015.06 1015.14 1015.18 1015.18 1015.26 1015.06 1015.14 1015.22 1015.46 1015.62 1015.86 1015.98 1016.14 1016.30 1016.54 1016.86 1017.22 1017.46 1017.74 1018.06 1018.18 1018.26 1018.34 1018.46 1018.62 1018.74 1018.86 1019.02 1019.14 1019.18 1019.22 1019.26 1019.38 1019.46 1019.50 1019.62 1019.74 1019.82 1019.86 1019.90 1019.98 1020.02 1020.06 1020.02 1020.10 1020.06 1020.10 1020.14 1020.18 1020.22 1020.26 1020.26 1020.30 1020.38 1020.34 1020.42 1020.50 1020.54
1015.10 1016.10 1015.90 1015.14 1015.42 1015.50 1015.50 1015.50 1015.58 1015.30 1015.18 1015.22 1015.34 1015.58 1015.82 1015.98 1016.10 1016.10 1016.34 1016.58 1016.98 1017.26 1017.46 1017.78 1018.02 1018.18 1018.34 1018.46 1018.62 1018.78 1018.90 1019.06 1019.14 1019.22 1019.30 1019.34 1019.46 1019.62 1019.70 1019.82 1019.94 1019.98 1020.06 1020.14 1020.22 1020.22 1020.30 1020.30 1020.30 1020.30 1020.34 1020.38 1020.34 1020.46 1020.46 1020.46 1020.46 1020.46 1020.42 1020.42 1020.38 1020.42
1014.86 1015.54 1016.30 1016.10 1016.30 1016.42 1016.38 1015.90 1015.82 1015.62 1015.30 1015.26 1015.34 1015.54 1015.78 1015.94 1016.10 1016.18 1016.26 1016.42 1016.78 1017.02 1017.26 1017.54 1017.86 1018.02 1018.30 1018.46 1018.62 1018.78 1018.98 1019.10 1019.18 1019.26 1019.34 1019.46 1019.54 1019.66 1019.78 1019.90 1020.02 1020.18 1020.26 1020.26 1020.30 1020.34 1020.38 1020.46 1020.46 1020.42 1020.46 1020.54 1020.54 1020.54 1020.58 1020.54 1020.50 1020.50 1020.46 1020.42 1020.42 1020.42
Wind_Speed
8 8 9 8 7 7 10 13 11 13 14 14 13 12 11 11 9 9 8 9 8 5 4 4 4 3 5 2 3 5 8 8 8 9 9 9 9 9 9 8 7 7 5 4 3 2 2 3 4 6 8 7 7 4 4 3 1 4 5 6 7 7
8 9 9 7 6 6 6 9 7 7 7 9 10 10 7 5 7 4 7 5 3 4 4 4 3 4 2 2 2 6 8 8 8 9 8 7 9 8 9 8 8 7 6 4 4 1 1 3 5 6 6 8 4 4 4 3 1 4 5 5 6 9
9 9 9 8 7 6 7 6 7 7 7 9 8 7 5 5 4 5 4 3 4 4 3 3 2 4 3 4 3 6 7 8 8 9 9 9 9 8 7 8 7 7 5 4 2 2 2 3 3 7 7 5 4 5 5 2 1 4 5 5 5 13
9 9 8 7 7 7 6 6 6 6 6 6 5 5 4 4 3 3 2 2 4 3 3 3 5 6 4 2 3 6 7 8 9 9 10 6 8 8 8 8 6 6 4 2 2 3 4 3 3 4 3 5 5 5 5 2 4 4 5 6 6 14
9 8 7 6 8 7 6 6 6 6 6 5 5 4 4 4 3 3 0 3 3 3 4 2 2 4 3 2 3 3 4 2 2 2 5 3 3 2 4 3 2 2 2 2 3 4 4 3 4 3 3 4 4 5 5 1 5 5 3 3 5 13
9 8 7 7 7 8 8 6 6 6 6 5 5 4 3 2 3 2 2 2 3 5 4 2 2 4 2 1 4 5 3 2 2 3 3 4 3 3 2 2 3 3 3 4 4 5 3 4 3 4 4 3 4 5 6 2 5 5 5 4 6 12
9 8 9 7 6 6 6 6 6 5 6 5 4 4 2 2 4 2 1 2 4 4 4 4 4 3 3 2 2 2 4 2 1 2 2 2 3 4 4 3 4 4 4 4 4 5 5 5 3 3 3 4 4 6 6 5 5 5 5 5 5 11
8 8 7 7 6 6 5 6 6 6 6 6 6 5 4 4 4 5 3 2 2 4 5 4 3 3 3 2 1 2 4 1 1 3 2 3 3 2 2 2 2 2 2 3 3 5 6 4 3 3 3 3 3 5 2 6 4 4 5 5 5 8
8 9 6 7 6 6 6 6 6 5 6 5 5 5 5 3 2 5 4 4 3 4 5 5 4 4 2 2 1 2 3 2 2 2 2 1 2 3 2 2 2 2 3 4 4 5 4 4 4 3 3 3 2 2 3 7 5 4 4 5 5 7
10 9 7 7 6 6 6 6 6 6 6 5 5 6 5 4 1 3 5 2 2 4 5 4 4 4 5 1 1 2 2 1 2 3 2 2 2 2 3 2 2 3 3 3 4 3 4 5 3 3 2 1 2 2 3 8 6 5 4 4 5 5
10 8 9 8 6 7 7 6 5 5 5 5 5 5 5 4 4 3 5 3 1 1 4 3 2 4 5 3 2 4 3 1 0 1 2 3 2 2 2 3 3 4 4 2 1 1 3 2 2 3 3 3 4 2 2 6 8 7 6 4 5 4
6 7 7 8 7 7 7 7 6 6 5 6 6 5 4 3 3 5 5 5 3 2 3 4 4 5 5 4 3 4 3 3 1 1 1 3 3 3 4 4 4 4 4 1 0 1 2 4 2 2 2 2 3 5 2 5 7 8 7 7 6 5
9 7 7 6 5 7 7 8 8 6 5 5 5 5 5 3 3 4 4 3 5 4 4 5 4 4 1 2 3 4 2 2 4 4 3 2 2 3 2 5 3 2 2 2 3 4 4 3 2 3 3 3 4 4 3 5 7 8 8 8 7 6
8 8 6 5 6 7 7 7 5 6 6 5 5 5 5 4 4 4 6 5 5 5 3 3 4 2 1 1 2 2 2 3 2 3 2 1 3 2 4 2 3 3 2 3 3 3 4 4 5 5 4 4 2 3 3 2 1 3 7 8 7 7
7 7 7 7 9 8 8 6 4 4 6 7 6 5 6 5 5 5 4 6 6 4 1 3 2 3 2 1 1 2 4 4 3 3 4 1 0 1 2 4 3 4 1 1 2 1 0 1 1 2 3 2 4 3 5 5 3 5 1 1 6 7
7 8 7 7 5 7 7 7 5 5 4 4 5 5 3 5 5 5 5 4 5 5 3 1 2 5 1 2 1 2 4 3 2 3 2 1 0 1 2 2 3 4 2 2 2 2 0 0 1 2 1 2 3 4 5 4 5 6 3 4 3 3
8 7 6 6 7 6 7 5 4 5 6 3 4 4 6 6 5 4 5 5 5 5 2 2 2 1 3 2 1 3 1 2 1 1 1 1 1 1 2 2 1 2 4 2 2 3 3 3 4 2 1 4 5 4 4 4 4 3 4 5 1 5
7 7 6 6 5 5 6 6 6 6 6 7 5 3 3 5 7 7 7 7 7 8 7 6 3 2 2 3 2 2 2 0 2 3 3 1 0 2 3 3 5 4 3 3 2 1 1 1 3 3 5 4 3 3 4 3 4 4 5 4 4 3
8 7 6 7 7 7 6 4 4 5 7 8 7 6 5 4 3 5 7 8 8 8 8 8 8 6 4 4 5 6 4 2 2 2 3 1 0 0 3 3 4 3 2 3 3 2 1 2 3 2 2 2 2 2 2 3 4 4 4 4 2 1
6 7 7 6 6 6 6 6 5 5 6 6 6 7 6 6 6 6 4 3 4 6 4 4 6 5 6 5 4 2 2 3 2 1 1 0 1 2 4 3 3 3 3 1 0 1 3 2 2 1 0 1 3 3 2 2 2 2 3 4 4 2
6 6 7 7 6 5 5 5 4 7 7 6 7 6 6 6 6 6 5 6 4 4 5 5 3 2 3 4 2 1 1 2 2 2 2 2 2 1 1 2 3 2 2 1 0 1 1 2 3 2 1 1 1 1 1 3 3 3 4 5 4 3
5 6 7 7 7 5 4 6 5 6 6 7 7 7 5 6 6 6 6 5 4 4 5 5 5 5 3 3 3 2 3 3 2 2 2 2 1 0 2 1 1 2 1 0 1 2 1 2 0 2 3 0 1 1 1 1 2 3 4 5 4 4
6 6 6 4 5 4 2 3 5 5 7 5 4 6 6 5 4 6 5 5 5 4 3 2 3 3 4 4 4 4 4 4 4 3 3 3 2 3 3 3 5 4 3 2 2 1 3 1 2 1 1 3 0 0 2 3 1 3 2 4 5 3
6 5 4 4 8 6 7 8 8 8 7 8 7 6 5 6 6 7 6 4 4 4 4 4 3 3 4 3 4 6 5 5 6 5 4 3 3 3 3 6 5 4 3 3 2 2 2 4 1 4 1 1 1 1 0 2 2 1 2 4 2 0
6 5 4 7 9 8 9 9 8 7 8 7 6 6 7 6 5 5 5 5 4 5 5 5 4 5 4 4 3 3 4 4 4 4 4 4 3 4 3 2 2 3 3 2 3 1 0 2 2 1 1 2 2 1 1 1 0 1 1 0 0 0
4 4 6 7 8 8 8 9 8 8 8 7 7 7 7 7 6 6 5 3 5 5 5 4 4 5 5 4 4 3 2 3 4 3 2 3 4 3 4 3 3 3 3 2 3 2 2 1 1 2 3 2 1 1 2 1 1 1 2 1 1 0
5 5 6 6 7 8 7 7 8 8 8 8 8 3 4 6 7 6 6 6 6 5 5 5 4 5 5 4 5 5 5 4 3 5 5 6 4 2 2 3 3 4 4 4 3 3 4 2 3 3 1 1 2 0 2 2 1 1 0 1 2 3
4 5 5 6 7 8 8 7 8 7 7 6 7 8 8 7 7 6 7 5 5 4 4 4 4 4 4 5 6 6 6 7 6 5 6 6 5 4 5 3 2 3 3 3 4 5 4 4 4 2 3 3 3 2 0 2 2 2 2 1 1 2
5 4 5 6 7 7 7 8 8 7 6 6 8 8 7 7 7 7 7 5 6 5 6 5 5 5 5 5 5 5 5 5 5 5 6 6 5 6 6 5 5 5 3 3 2 2 4 3 3 3 4 2 3 2 1 2 2 1 1 1 2 1
6 5 6 6 7 7 7 8 8 7 9 8 8 7 7 7 6 7 8 7 7 7 6 6 5 5 5 5 5 5 5 6 5 5 5 5 5 6 5 5 5 5 5 6 5 4 3 2 2 2 2 2 2 3 1 1 1 0 0 0 1 2
6 6 7 8 7 9 7 7 7 9 10 10 9 9 8 7 7 7 8 7 7 6 6 6 6 5 5 5 5 4 5 4 4 4 4 5 4 4 4 4 5 7 7 6 6 6 6 5 4 5 5 5 6 5 4 2 2 2 3 1 1 2
5 8 8 8 7 9 8 7 7 10 10 10 10 9 10 9 8 8 7 8 7 7 6 6 5 6 4 4 4 4 4 5 5 5 5 4 4 5 6 6 6 6 6 5 5 6 5 6 6 6 6 6 5 5 4 4 1 2 3 1 1 1
10 10 10 9 8 9 7 7 7 10 8 9 9 10 9 8 7 8 7 8 8 7 7 6 5 5 4 4 4 5 5 5 5 4 4 5 4 5 5 5 5 5 5 5 4 5 6 4 5 5 4 3 5 5 4 3 4 4 3 4 5 5
3 8 10 9 7 8 7 6 5 8 8 8 9 9 8 8 7 7 7 8 8 7 7 7 6 6 5 4 4 5 4 4 4 4 4 4 4 4 4 4 4 5 4 3 4 4 4 4 4 4 4 6 5 5 4 5 4 5 5 5 4 4
2 6 5 8 6 7 7 5 3 6 7 7 8 8 7 7 7 8 7 8 7 7 7 6 7 5 4 5 5 5 5 5 4 4 4 4 5 5 4 5 4 4 4 4 5 5 4 5 5 5 5 4 5 5 4 4 5 4 3 3 3 2
2 5 8 7 3 3 4 2 2 5 6 7 7 7 6 6 6 6 7 8 8 7 7 7 6 5 4 5 5 5 5 5 5 4 3 3 4 4 4 5 4 3 3 2 4 4 3 4 3 4 5 4 6 4 5 4 4 4 4 3 3 3
9 9 6 5 5 5 2 1 1 2 5 6 8 8 7 6 5 5 6 6 8 8 7 8 7 6 5 5 5 5 4 4 4 4 3 3 4 4 4 4 3 3 4 3 4 3 3 4 4 4 4 4 4 6 4 3 3 3 3 3 3 3
Wind_Direction
130 131 126 121 119 121 131 124 123 126 128 131 131 130 127 123 122 125 129 134 130 123 124 118 113 119 136 117 101 139 142 146 150 146 150 154 156 156 157 157 155 158 159 179 182 181 183 279 285 298 302 307 320 326 301 49 309 137 136 133 133 141
142 140 135 129 126 125 125 121 116 122 127 131 133 127 119 127 125 121 131 133 123 118 111 120 145 146 126 140 117 139 147 147 154 159 155 159 161 161 166 163 163 170 171 183 200 195 240 239 265 268 286 295 315 308 309 47 47 141 134 132 141 149
147 145 140 137 135 140 133 132 130 127 128 133 139 133 141 133 131 133 143 159 121 119 120 110 127 142 147 143 155 152 156 161 162 164 164 167 164 160 162 166 176 175 174 185 204 237 256 240 257 270 269 289 306 291 295 68 170 147 141 146 148 152
151 147 144 141 138 144 143 141 144 137 135 141 137 139 134 133 115 103 106 118 112 115 99 106 158 142 166 138 150 159 170 176 173 166 167 160 167 162 167 168 173 182 182 188 206 241 253 246 227 237 264 280 289 290 296 60 136 129 137 151 150 152
150 148 146 143 140 148 152 146 148 141 142 139 138 133 144 137 121 107 66 111 104 90 90 79 59 119 124 132 139 170 184 161 109 130 147 129 135 158 144 140 157 177 177 208 232 238 245 250 235 215 226 247 270 282 286 83 140 125 125 136 156 155
149 147 145 148 151 153 155 151 147 143 137 141 133 133 165 146 108 116 131 108 110 90 102 90 79 88 96 146 171 194 145 98 155 170 149 143 155 140 147 143 159 180 216 219 235 251 238 231 208 202 208 233 264 271 266 104 142 124 124 141 165 157
146 144 148 151 143 141 149 145 138 138 140 148 134 139 204 189 129 135 127 96 97 106 105 99 96 115 173 182 204 130 74 64 61 65 88 111 141 147 163 146 149 180 214 225 237 244 247 221 184 178 198 222 224 241 253 123 133 129 133 143 160 156
141 142 148 143 137 131 132 134 142 143 134 153 140 152 199 216 156 139 138 114 110 105 114 122 132 166 169 160 107 94 96 80 80 70 65 97 128 139 152 170 186 191 233 252 259 249 232 221 215 216 231 224 247 222 233 98 110 123 142 140 153 161
143 147 143 137 140 129 123 119 123 124 137 137 126 141 169 210 170 122 132 134 140 117 114 132 155 167 133 106 160 112 108 172 146 114 125 119 164 166 158 190 209 213 232 241 253 269 246 226 202 193 211 273 279 248 115 119 123 139 150 149 154 169
151 152 143 144 140 134 132 131 132 126 130 121 119 120 134 159 163 87 101 88 97 123 132 155 163 130 100 99 198 120 112 201 173 128 132 194 225 173 177 213 226 231 244 262 269 297 253 210 210 194 217 218 275 199 152 133 142 142 150 155 163 168
150 144 144 145 147 144 143 141 128 123 118 125 125 125 139 151 148 122 117 105 112 142 134 141 125 87 103 199 179 88 95 125 97 115 147 170 179 203 202 203 213 223 231 246 306 283 50 322 246 206 217 212 259 295 145 143 144 147 156 167 169 171
135 141 138 146 155 141 136 136 127 127 136 134 131 129 129 119 109 124 135 148 138 96 75 68 84 100 144 172 142 107 119 124 157 254 227 187 191 205 206 221 233 211 175 145 199 35 30 62 7 8 354 321 295 264 196 172 149 155 162 165 171 181
96 108 126 142 145 136 145 131 139 145 141 139 138 130 114 113 99 103 119 110 91 70 48 53 25 40 127 182 125 125 137 170 194 205 201 204 227 246 236 229 238 118 89 60 21 24 20 15 56 336 344 319 307 301 267 191 171 157 164 165 175 175
90 92 93 90 82 105 138 135 140 144 141 143 136 131 134 146 118 106 109 94 75 56 75 82 103 102 319 57 60 90 147 222 219 225 185 170 226 248 261 168 142 78 61 58 41 15 36 348 5 341 349 337 15 18 17 318 13 166 167 168 173 174
84 82 80 80 83 88 105 129 141 145 145 137 146 155 152 131 126 118 107 104 112 115 88 110 123 176 226 74 138 199 208 202 206 198 168 166 233 270 238 138 136 113 93 59 27 330 82 69 344 350 57 32 27 20 44 356 3 71 95 232 172 173
94 94 95 98 99 96 107 133 150 160 147 165 129 111 115 124 117 120 114 106 107 110 98 156 182 170 131 144 318 275 193 184 183 169 144 204 348 37 344 129 149 133 114 57 39 317 240 11 19 76 69 56 22 34 60 27 32 17 64 147 201 195
109 106 104 95 93 99 104 107 118 126 143 144 95 129 144 124 121 110 119 125 135 119 131 257 306 150 116 111 183 270 260 169 106 98 157 197 230 110 76 66 38 69 110 120 65 20 27 73 91 93 352 48 20 12 32 42 28 24 20 35 45 187
120 119 120 111 104 99 99 95 88 93 103 120 133 132 92 109 130 147 147 152 155 145 160 170 204 209 135 170 201 230 235 102 132 115 101 92 115 82 96 84 75 61 102 116 103 124 296 50 57 32 23 31 21 4 9 15 17 15 17 15 13 60
123 127 115 108 106 104 106 108 105 81 84 98 118 129 129 119 112 132 152 158 152 153 161 167 183 172 180 189 199 198 167 137 107 96 89 64 4 83 81 77 102 85 55 73 143 175 88 48 71 55 51 341 330 336 350 15 25 8 6 346 352 341
134 132 125 121 119 121 120 128 98 81 77 78 86 86 88 104 90 70 66 76 111 129 150 163 171 177 177 193 200 214 150 141 114 99 111 108 278 182 150 125 118 114 105 102 71 116 114 138 99 80 359 323 324 332 353 10 356 358 343 344 337 317
149 141 134 134 140 143 139 134 116 125 126 113 101 91 85 85 83 85 78 83 96 109 130 166 179 176 188 187 172 171 93 103 155 142 146 214 207 308 103 108 108 72 118 107 73 118 51 72 80 18 352 261 266 256 341 335 313 350 346 328 320 349
147 153 153 158 162 160 161 161 147 134 126 124 111 102 92 75 88 86 81 68 59 82 115 134 160 174 197 155 142 168 149 160 159 177 172 185 210 86 65 34 88 85 324 168 148 120 145 96 7 174 146 75 2 354 324 332 346 327 338 317 325 352
166 165 173 158 139 145 109 107 112 132 119 97 90 116 118 118 96 87 80 76 69 58 58 59 103 98 122 153 177 164 163 151 177 189 181 191 182 149 158 184 215 160 166 223 113 130 173 184 171 147 115 82 312 35 331 350 348 294 267 275 293 348
176 177 154 141 112 107 104 103 108 118 108 114 129 124 108 98 93 89 87 79 66 83 86 70 53 70 57 46 117 167 173 173 170 180 162 167 174 148 138 168 185 166 150 136 153 174 178 195 186 126 70 154 199 110 45 308 291 284 216 227 230 309
178 170 147 130 118 119 106 97 102 94 99 90 83 96 96 99 110 117 95 71 80 70 71 72 81 81 84 69 66 107 129 155 144 147 147 149 133 143 172 137 149 151 145 145 164 131 324 171 218 69 141 102 57 5 224 226 121 292 352 34 354 181
170 147 139 135 132 123 123 128 124 122 122 123 120 113 124 134 120 106 117 122 85 75 71 68 60 63 67 69 58 46 61 123 156 138 138 136 144 130 139 149 175 143 128 133 137 124 117 95 139 64 80 116 147 178 169 244 98 264 326 298 302 21
164 150 147 143 135 126 123 130 135 136 140 143 139 136 134 132 124 129 115 111 117 106 104 99 82 76 62 54 67 60 54 56 73 98 87 81 90 132 149 133 138 136 151 158 147 119 143 130 92 91 106 51 300 247 229 129 198 126 359 305 246 232
152 147 159 149 138 141 140 141 136 141 143 139 133 136 135 133 129 130 123 114 90 74 75 87 84 69 69 69 66 58 53 66 71 64 74 72 75 65 66 71 109 114 127 141 133 130 141 156 131 155 155 171 244 254 236 69 79 149 157 156 307 312
149 149 170 157 147 154 150 152 149 148 140 143 134 134 130 127 128 122 107 99 93 84 68 58 73 74 57 61 68 67 58 64 76 79 76 71 63 57 57 57 59 73 84 74 83 110 114 145 131 149 143 193 162 204 86 65 71 84 132 141 272 279
157 167 173 170 158 165 165 158 152 149 146 142 131 125 121 129 123 119 120 118 113 101 91 81 73 75 68 64 67 66 63 65 73 81 83 85 82 72 63 62 63 64 59 61 46 53 69 95 93 104 108 128 115 123 88 54 40 91 13 136 197 288
169 175 178 178 170 175 176 170 154 153 150 145 139 133 128 132 126 120 123 129 126 122 112 99 91 77 77 74 71 70 68 60 65 76 93 100 98 92 86 74 57 53 53 62 54 52 54 47 51 50 50 67 87 94 114 120 59 32 84 83 10 322
214 186 183 184 181 181 180 177 152 156 152 150 144 141 143 149 146 138 137 130 126 115 110 105 92 84 84 81 71 67 65 59 58 63 68 84 87 85 79 72 66 70 69 66 62 64 58 45 40 43 49 66 84 92 81 86 121 118 75 48 103 342
190 191 187 186 185 185 183 182 156 158 155 148 145 144 146 146 148 143 138 131 127 127 128 115 116 112 119 104 98 87 75 63 57 57 59 66 82 88 85 82 83 81 77 75 79 81 71 69 69 63 59 47 72 66 67 51 58 47 42 67 61 38
232 197 187 187 186 182 190 187 160 159 154 144 146 145 147 148 152 147 141 139 138 142 141 145 141 142 150 132 95 107 103 90 75 65 67 69 69 82 87 85 77 72 74 74 70 68 77 74 66 64 66 63 61 70 48 48 67 64 55 50 41 43
257 287 210 191 182 183 185 195 163 157 151 141 143 142 148 151 151 146 146 141 142 143 141 149 145 159 145 127 122 109 110 102 90 75 56 46 58 75 78 75 73 77 74 82 73 68 61 65 50 41 36 66 79 54 58 63 71 61 70 84 98 67
112 318 251 196 193 179 177 181 157 149 151 137 139 138 140 145 153 150 149 145 148 150 149 144 144 142 139 128 123 121 115 120 117 101 98 79 78 90 94 86 79 83 87 72 88 82 75 68 55 41 48 58 65 41 42 61 63 64 54 63 69 71
186 205 274 32 35 22 357 25 34 134 145 136 138 144 147 158 154 157 150 146 145 155 146 142 146 148 141 135 131 133 128 130 129 134 126 109 117 110 110 120 110 87 75 87 101 111 85 73 59 56 57 71 96 70 50 54 58 61 48 27 17 20